Location: Newark
(7.0858°N, 171.3717°E)
Time: 14:53:15
(UTC+00:00)

Courier 1B Rocket - Pass Details

Date: 29 November 2020
Orbit: 920 x 1202 km, 28.2° (Epoch: 20 January)

Event Time Altitude Azimuth Distance (km) Brightness Sun altitude
Rises 00:49:23 0° 302° (WNW) 3,866 8.0 60.7°
Reaches altitude 10° 00:52:13 10° 304° (WNW) 2,867 7.5 60.5°
Maximum altitude 00:59:10 74° 28° (NNE) 1,035 6.0 60.0°
Drops below altitude 10° 01:05:38 10° 113° (ESE) 2,678 7.5 59.5°
Sets 01:08:12 0° 115° (ESE) 3,596 8.0 59.3°
